National City (44) Station Data

Red Flag Warning: No
Fire Weather Zone: 243
SDGE Region: Metro
Lat/Lon: 32.654/-117.097

Observations

Time Wind Speed/Gust Temp(F) RH Fuel Moist Fuel Temp(F) Dewpt(F) Tmax(F) Tmin(F) Accum Precip 10-min Precip SL Press(mb)
3/29 8:00am 82 2 G 3 56° 54% - - 40° 57.1° 50.9° - - -
3/29 7:50am 72 1 G 3 55° 56% - - 40° 57.1° 50.9° - - -
3/29 7:40am 45 3 G 4 54° 58% - - 39° 57.1° 50.9° - - -
3/29 7:30am 51 3 G 4 53° 60% - - 40° 57.1° 50.9° - - -
3/29 7:20am 76 4 G 6 53° 60% - - 40° 57.1° 50.9° - - -
3/29 7:10am 70 2 G 5 52° 61% - - 40° 57.1° 50.9° - - -
3/29 7:00am 85 3 G 5 52° 63% - - 40° 57.1° 50.9° - - -
3/29 6:50am 84 3 G 5 52° 66% - - 41° 57.1° 50.9° - - -
3/29 6:40am 70 2 G 4 52° 68% - - 41° 57.1° 50.9° - - -
3/29 6:30am 72 3 G 4 51° 67% - - 41° 57.1° 50.9° - - -
3/29 6:20am 57 2 G 3 51° 67% - - 41° 57.1° 50.9° - - -
3/29 6:10am 22 1 G 4 52° 67% - - 41° 57.1° 51.2° - - -
3/29 6:00am 59 4 G 6 52° 67% - - 41° 57.1° 51.2° - - -
3/29 5:50am 66 3 G 5 52° 65% - - 41° 57.1° 51.2° - - -
3/29 5:40am 77 2 G 3 52° 67% - - 42° 57.1° 51.2° - - -
3/29 5:30am 74 3 G 4 52° 69% - - 42° 57.1° 51.2° - - -
3/29 5:20am 79 4 G 6 52° 71% - - 43° 57.1° 51.2° - - -
3/29 5:10am 62 3 G 5 51° 72% - - 43° 57.1° 51.2° - - -
3/29 5:00am 64 3 G 5 52° 73% - - 43° 57.1° 51.2° - - -
3/29 4:50am 64 3 G 4 52° 74% - - 44° 57.1° 51.4° - - -
3/29 4:40am 72 2 G 3 52° 74% - - 44° 57.1° 51.5° - - -
3/29 4:30am 57 2 G 3 52° 74% - - 44° 57.1° 51.5° - - -
3/29 4:20am 53 2 G 4 52° 74% - - 44° 57.1° 51.5° - - -
3/29 4:10am 67 3 G 5 52° 74% - - 44° 57.1° 51.7° - - -
3/29 4:00am 56 2 G 3 52° 73% - - 44° 57.1° 51.7° - - -
3/29 3:50am 60 3 G 5 52° 73% - - 44° 57.1° 51.7° - - -
3/29 3:40am 43 2 G 4 52° 73% - - 44° 57.1° 51.7° - - -
3/29 3:30am 53 3 G 4 52° 72% - - 44° 57.1° 52° - - -
3/29 3:20am 65 3 G 5 53° 72% - - 44° 57.1° 52.5° - - -
3/29 3:10am 65 3 G 4 53° 72% - - 44° 57.1° 52.7° - - -
3/29 3:00am 78 4 G 6 54° 71% - - 45° 57.1° 53.2° - - -
3/29 2:50am 87 4 G 6 54° 71% - - 45° 57.1° 53.7° - - -
3/29 2:40am 88 3 G 4 54° 72% - - 45° 57.1° 53.7° - - -
3/29 2:30am 82 2 G 4 55° 69% - - 45° 57.1° 54° - - -
3/29 2:20am 70 2 G 3 55° 68% - - 45° 57.1° 54.4° - - -
3/29 2:10am 112 2 G 4 55° 68% - - 45° 57.1° 54.4° - - -
3/29 2:00am 104 2 G 3 55° 67% - - 45° 57.1° 54.4° - - -
3/29 1:50am 61 2 G 3 55° 67% - - 44° 57.1° 54.4° - - -
3/29 1:40am 5 1 G 2 55° 68% - - 44° 57.1° 54.4° - - -
3/29 1:30am 57 2 G 3 55° 68% - - 45° 57.1° 54.6° - - -
3/29 1:20am 81 3 G 4 55° 68% - - 45° 57.1° 54.9° - - -
3/29 1:10am 90 4 G 5 56° 68% - - 45° 57.1° 54.9° - - -
3/29 1:00am 71 2 G 4 55° 67% - - 45° 57.1° 54.9° - - -
3/29 12:50am 37 1 G 2 56° 66% - - 45° 57.1° 55.1° - - -
3/29 12:40am 75 1 G 3 56° 66% - - 45° 57.1° 55.3° - - -
3/29 12:30am 58 2 G 2 56° 66% - - 45° 57.1° 55.6° - - -
3/29 12:20am 55 2 G 3 56° 65% - - 45° 57.1° 55.7° - - -
3/29 12:10am 66 3 G 4 57° 65% - - 45° 57.1° 56.2° - - -
3/29 12:00am 62 2 G 4 57° 66% - - 45° 68.3° 51.3° - - -
3/28 11:50pm 78 3 G 4 57° 65% - - 45° 68.3° 51.3° - - -
3/28 11:40pm 80 3 G 4 57° 65% - - 46° 68.3° 51.3° - - -
3/28 11:30pm 86 2 G 3 58° 67% - - 47° 68.3° 51.3° - - -
3/28 11:20pm 97 3 G 4 58° 69% - - 48° 68.3° 51.3° - - -
3/28 11:10pm 95 3 G 4 58° 71% - - 49° 68.3° 51.3° - - -
3/28 11:00pm 84 3 G 4 58° 73% - - 50° 68.3° 51.3° - - -
3/28 10:50pm 96 3 G 4 59° 74% - - 51° 68.3° 51.3° - - -
3/28 10:40pm 82 3 G 5 59° 76% - - 52° 68.3° 51.3° - - -
3/28 10:30pm 64 2 G 3 60° 78% - - 53° 68.3° 51.3° - - -
3/28 10:20pm 59 1 G 2 60° 77% - - 53° 68.3° 51.3° - - -
3/28 10:10pm 66 1 G 2 60° 77% - - 53° 68.3° 51.3° - - -
3/28 10:00pm 78 1 G 3 61° 77% - - 53° 68.3° 51.3° - - -
3/28 9:50pm 63 2 G 3 60° 78% - - 53° 68.3° 51.3° - - -
3/28 9:40pm 31 1 G 3 60° 78% - - 54° 68.3° 51.3° - - -
3/28 9:30pm 52 1 G 2 61° 78% - - 54° 68.3° 51.3° - - -
3/28 9:20pm 38 0 G 1 61° 78% - - 54° 68.3° 51.3° - - -
3/28 9:10pm 14 1 G 1 61° 78% - - 54° 68.3° 51.3° - - -
3/28 9:00pm 230 0 G 1 61° 79% - - 54° 68.3° 51.3° - - -
3/28 8:50pm 171 1 G 3 61° 78% - - 55° 68.3° 51.3° - - -
3/28 8:40pm 170 2 G 3 61° 79% - - 55° 68.3° 51.3° - - -
3/28 8:30pm 215 1 G 4 61° 79% - - 55° 68.3° 51.3° - - -
3/28 8:20pm 229 2 G 4 61° 78% - - 54° 68.3° 51.3° - - -
3/28 8:10pm 235 3 G 5 62° 77% - - 54° 68.3° 51.3° - - -
3/28 8:00pm 228 3 G 5 62° 76% - - 54° 68.3° 51.3° - - -
3/28 7:50pm 220 3 G 6 62° 76% - - 54° 68.3° 51.3° - - -
3/28 7:40pm 236 3 G 6 62° 74% - - 54° 68.3° 51.3° - - -
3/28 7:30pm 224 3 G 5 63° 73% - - 54° 68.3° 51.3° - - -
3/28 7:20pm 214 3 G 5 63° 70% - - 53° 68.3° 51.3° - - -
3/28 7:10pm 227 4 G 7 64° 70% - - 54° 68.3° 51.3° - - -
3/28 7:00pm 259 4 G 7 66° 46% - - 44° 68.3° 51.3° - - -
3/28 6:50pm 287 3 G 6 66° 46% - - 45° 68.3° 51.3° - - -
3/28 6:40pm 270 4 G 8 65° 54% - - 48° 68.3° 51.3° - - -
3/28 6:30pm 270 5 G 9 65° 55% - - 49° 68.3° 51.3° - - -
3/28 6:20pm 269 5 G 8 66° 54% - - 48° 68.3° 51.3° - - -
3/28 6:10pm 272 6 G 10 66° 53% - - 48° 68.3° 51.3° - - -
3/28 6:00pm 274 6 G 10 66° 55% - - 49° 68.3° 51.3° - - -
3/28 5:50pm 270 6 G 11 66° 56% - - 50° 68.3° 51.3° - - -
3/28 5:40pm 268 7 G 11 66° 56% - - 50° 68.3° 51.3° - - -
3/28 5:30pm 269 8 G 12 66° 57% - - 50° 68.3° 51.3° - - -
3/28 5:20pm 266 8 G 13 66° 56% - - 50° 68.3° 51.3° - - -
3/28 5:10pm 276 7 G 11 66° 57% - - 51° 68.3° 51.3° - - -
3/28 5:00pm 275 8 G 12 66° 59% - - 51° 68.3° 51.3° - - -
3/28 4:50pm 268 8 G 13 66° 58% - - 51° 68.3° 51.3° - - -
3/28 4:40pm 268 9 G 14 67° 55% - - 50° 68.3° 51.3° - - -
3/28 4:30pm 268 9 G 15 67° 55% - - 50° 68.3° 51.3° - - -
3/28 4:20pm 266 8 G 13 67° 54% - - 50° 68.3° 51.3° - - -
3/28 4:10pm 276 9 G 13 67° 50% - - 48° 68.3° 51.3° - - -
3/28 4:00pm 274 9 G 14 67° 57% - - 51° 68.3° 51.3° - - -
3/28 3:50pm 271 8 G 13 67° 59% - - 52° 68.3° 51.3° - - -
3/28 3:40pm 259 8 G 13 67° 55% - - 50° 68.3° 51.3° - - -
3/28 3:30pm 260 8 G 13 67° 54% - - 50° 68.3° 51.3° - - -
3/28 3:20pm 263 9 G 15 67° 52% - - 49° 68.3° 51.3° - - -
3/28 3:10pm 263 10 G 14 67° 51% - - 48° 68.3° 51.3° - - -
3/28 3:00pm 265 11 G 16 67° 49% - - 47° 68.3° 51.3° - - -
3/28 2:50pm 266 10 G 15 67° 51% - - 48° 68.3° 51.3° - - -
3/28 2:40pm 269 9 G 14 67° 57% - - 52° 68.3° 51.3° - - -
3/28 2:30pm 268 9 G 14 67° 54% - - 50° 68.3° 51.3° - - -
3/28 2:20pm 278 10 G 16 67° 54% - - 50° 68.3° 51.3° - - -
3/28 2:10pm 263 9 G 14 66° 59% - - 51° 67.9° 51.3° - - -
3/28 2:00pm 262 9 G 13 67° 55% - - 50° 67.9° 51.3° - - -
3/28 1:50pm 278 10 G 14 66° 59% - - 51° 66.5° 51.3° - - -
3/28 1:40pm 266 9 G 14 65° 67% - - 54° 65.9° 51.3° - - -
3/28 1:30pm 256 8 G 13 65° 70% - - 55° 65.7° 51.3° - - -
3/28 1:20pm 247 9 G 15 64° 70% - - 54° 65.2° 51.3° - - -
3/28 1:10pm 234 8 G 13 64° 73% - - 55° 65.1° 51.3° - - -
3/28 1:00pm 239 7 G 13 64° 71% - - 54° 65.1° 51.3° - - -
3/28 12:50pm 237 7 G 11 64° 70% - - 54° 65° 51.3° - - -
3/28 12:40pm 237 6 G 10 63° 72% - - 54° 64.8° 51.3° - - -
3/28 12:30pm 237 8 G 13 62° 73% - - 54° 64.8° 51.3° - - -
3/28 12:20pm 236 7 G 13 63° 72% - - 54° 64.8° 51.3° - - -
3/28 12:10pm 240 7 G 11 63° 72% - - 54° 64.8° 51.3° - - -
3/28 12:00pm 255 8 G 12 63° 71% - - 54° 64.8° 51.3° - - -
3/28 11:50am 236 7 G 11 63° 72% - - 54° 64.8° 51.3° - - -
3/28 11:40am 232 7 G 11 63° 72% - - 54° 64.8° 51.3° - - -
3/28 11:30am 233 6 G 9 63° 70% - - 53° 64.8° 51.3° - - -
3/28 11:20am 240 6 G 9 64° 68% - - 53° 64.8° 51.3° - - -
3/28 11:10am 221 4 G 10 64° 67% - - 52° 64.8° 51.3° - - -
3/28 11:00am 247 5 G 8 63° 66% - - 52° 64° 51.3° - - -
3/28 10:50am 225 5 G 9 63° 65% - - 51° 64° 51.3° - - -
3/28 10:40am 226 5 G 7 62° 65% - - 51° 63.7° 51.3° - - -
3/28 10:30am 247 4 G 8 63° 64% - - 50° 63.7° 51.3° - - -
3/28 10:20am 227 4 G 6 62° 64% - - 50° 63.1° 51.3° - - -
3/28 10:10am 240 5 G 8 62° 64% - - 50° 63.1° 51.3° - - -
3/28 10:00am 258 5 G 9 61° 65% - - 50° 62.3° 51.3° - - -
3/28 9:50am 254 3 G 6 61° 64% - - 49° 62.3° 51.3° - - -
3/28 9:40am 283 3 G 7 61° 64% - - 49° 62° 51.3° - - -
3/28 9:30am 74 2 G 5 60° 65% - - 48° 61.2° 51.3° - - -
3/28 9:20am 132 2 G 5 60° 66% - - 49° 60.5° 51.3° - - -
3/28 9:10am 106 2 G 4 59° 67% - - 48° 59.9° 51.3° - - -
3/28 9:00am 89 2 G 4 58° 69% - - 48° 59° 51.3° - - -
3/28 8:50am 75 1 G 3 57° 70% - - 48° 58.5° 51.3° - - -
3/28 8:40am 34 2 G 5 56° 72% - - 48° 57.5° 51.3° - - -
3/28 8:30am 40 2 G 4 56° 74% - - 48° 57.5° 51.3° - - -
3/28 8:20am 73 2 G 3 56° 75% - - 48° 57.5° 51.3° - - -
3/28 8:10am 102 2 G 4 55° 76% - - 47° 57.5° 51.3° - - -
3/28 8:00am 78 3 G 5 54° 76% - - 47° 57.5° 51.3° - - -
3/28 7:50am 70 4 G 8 54° 78% - - 47° 57.5° 51.3° - - -
3/28 7:40am 80 5 G 7 53° 79% - - 47° 57.5° 51.3° - - -
3/28 7:30am 68 5 G 7 53° 81% - - 47° 57.5° 51.3° - - -
3/28 7:20am 86 5 G 7 52° 84% - - 47° 57.5° 51.3° - - -
3/28 7:10am 93 4 G 6 52° 85% - - 47° 57.5° 51.3° - - -
3/28 7:00am 98 4 G 6 52° 86% - - 48° 57.5° 51.3° - - -
3/28 6:50am 101 4 G 7 52° 86% - - 48° 57.5° 51.5° - - -
3/28 6:40am 120 2 G 4 52° 86% - - 48° 57.5° 51.5° - - -
3/28 6:30am 88 4 G 7 52° 87% - - 48° 57.5° 51.5° - - -
3/28 6:20am 72 5 G 8 52° 87% - - 48° 57.5° 51.7° - - -
3/28 6:10am 73 3 G 5 52° 86% - - 48° 57.5° 51.8° - - -
3/28 6:00am 84 5 G 6 52° 87% - - 49° 57.5° 51.8° - - -